Weather in Gorelovo

Russia / Yaroslavl Oblast     58°14′13″N   38°07′11″E
temp.,
°C
wind,
m/s
gust,
m/s
humid.,
%
clouds,
%
prec.,
mm/h
press.,
hPa
HPBL,
m
15 may, sat
sat1500:00+12sse4797100 0.3 1013130
03:00+10sse359798 0.3 101284
06:00+11e369993 0.0 1011115
09:00+13ese579499 0.1 1009310
12:00+18se597554 1.3 1008725
15:00+20s4872100 2.9 1006712
18:00+17ssw3680100 4.1 1004177
21:00+14ssw368665 6.9 1006112
16 may, sun
sun1600:00+12ssw511926 0.3 1006195
03:00+11ssw49955 0.3 1007157
06:00+11ssw499456 0.0 1007259
09:00+14ssw697968 0.0 1008527
12:00+16sw6107371 0.1 1009756
15:00+18sw69619 0.1 10091007
18:00+16sw597736 0.6 1010581
21:00+13wsw35935 1.9 101176
17 may, mon
mon1700:00+12w23964 0.0 101326
03:00+11wsw1296100 0.0 101511
06:00+11ese119431 0.0 101632
09:00+14ese2382100 0.0 1017375
12:00+15e3474100 0.0 1016702
15:00+17e3570100 0.0 1016853
18:00+16e357958 0.0 1015323
21:00+15ese488696 0.0 1014110
18 may, tue
tue1800:00+14ese4119281 0.4 1013212
03:00+13ese4898100 0.5 1012137
06:00+14se5109287 0.0 1011179
09:00+19se61167100 0.0 1010354
12:00+23se71350100 0.0 1009661
15:00+24se7134859 0.0 1009970
18:00+22se713535 0.0 1008621
21:00+18se6146897 0.0 1008373
19 may, wed
wed1900:00+17se614735 0.0 1007342
03:00+16se5128147 0.0 1006286
06:00+16se5118258 0.1 1005333
09:00+19sse6126888 0.1 1006755
12:00+20sse8136561 0.7 10061019
15:00+17sse71378100 2.4 1006788
18:00+16sse71280100 1.2 1005666
21:00+13s512900 4.4 1005325